YPBO

Details ICAO YPBO (PBO)
Name Paraburdoo
Region Australia
Timezone Australia/Perth (UTC+8.0)
Plans Departing 5
Arriving 7
Stats Elevation 1,406 ft / 429 m (AMSL)
Location -23.171430° 117.746934°
Runways 1
Magnetic Variation 0.871° E
Sunrise 2018-05-23 22:40:33 UTC / 2018-05-24 06:40:33 Local
Sunset 2018-05-24 09:33:58 UTC / 2018-05-24 17:33:58 Local
Advertisement - Login to hide

Runways

ID Width Length Bearing (true) Bearing (mag) Surface Threshold Offset Overrun Length
06 148 ft / 45 m 6,992 ft / 2,131 m 65.00° 64.13° Asphalt 0 ft / 0 m 207 ft / 63 m
24 148 ft / 45 m 6,992 ft / 2,131 m 245.00° 244.13° Asphalt 0 ft / 0 m 197 ft / 60 m

Map

Weather


0- 5 10 15 20 25 30 35+ Temperature / ° C

Clouds and Precipitation
Forecast for 2018-05-24 12:00 UTC. Updated an hour ago

Ground ~20,000 ft ~40,000 ft Winds

METAR

YPBO 241000Z AUTO 36006KT 9999 // NCD 27/00 Q1012

TAF

Not found

Frequencies

Unicom 126.70 MHz CTAF
Warning: Do not use this data for real-world aviation or navigation. No guarantee of current accuracy is given.